www.pogodaiklimat.ru
ПОГОДА в Букараманге

Архив погоды в Букараманге (Колумбия)

Время
(UTC), дата
12 10.05
15 10.05
18 10.05
21 10.05
00 11.05
03 11.05
12 11.05
15 11.05
18 11.05
21 11.05
00 12.05
03 12.05
12 12.05
15 12.05
18 12.05
21 12.05
00 13.05
03 13.05
12 13.05
15 13.05
18 13.05
21 13.05
00 14.05
03 14.05
12 14.05
15 14.05
18 14.05
21 14.05
00 15.05
03 15.05
12 15.05
15 15.05
18 15.05
21 15.05
00 16.05
03 16.05
12 16.05
15 16.05
18 16.05
21 16.05
00 17.05
03 17.05
Ветер
(напр.,м/с)
Видим. Явления Облачность Т
(С)
Тd
(С)
f
(%)
Тe
(С)
Тes
(С)
Комфортность P
(гПа)
Po
(гПа)
Тmin
(С)
Tmax
(С)
R
(мм)
R24
(мм)
S
(см)
Ю 3 15 км мгла 10/4 500 м
[Cu Sc Ac As]
+19.1 +19.1 100 +21 +22 комфорт 1016.0 882.7 +18.5 0.2
СЗ 2 15 км мгла 10/5 450 м
[Cu Sc Ac As Ci sp]
+23.4 +19.3 78 +29 +38 душно 1017.0 884.0
С 2 15 км мгла 10/3 450 м
[Cu Sc Ac As Cs]
+26.2 +20.8 74 +33 +43 очень
душно
1015.0 881.6
СЗ 3 18 км мгла 8/5 300 м
[Cu Sc Ac As Ci fib]
+23.9 +20.8 83 +30 +32 очень
душно
1011.0 878.8
СЗ 2 3000 м туман на расстоянии 10/9 150 м
[Frnb Ac As]
+21.0 +21.0 100 +27 +27 душно 1014.0 881.4 +26.8
С 3 2000 м гроза без осадков 10/9 150 м
[Cb cap Ac As]
+20.0 +20.0 100 +24 +24 комфорт 1017.0 883.6
Ю 3 3000 м слаб. морось {дождь} 10/9 300 м
[Frnb As op]
+18.0 +18.0 100 +18 +19 1016.0 883.1 +17.5 11
Ю 4 15 км {морось} 9/3 300 м
[Cu hum Ac trans Cs]
+21.1 +21.1 100 +27 +32 душно 1016.0 882.5
СЗ 3 15 км мгла {морось} 6/4 500 м
[Cu med, cong Ac trans Ci sp]
+26.0 +20.0 70 +32 +40 очень
душно
1013.0 878.4 0.2
С 2 20 км мгла 6/4 500 м
[Cu med, cong Ci sp]
+23.7 +20.8 83 +30 +33 очень
душно
1012.0 879.4
СЗ 3 15 км мгла 9/3 360 м
[Cu Sc Ac As Cs]
+20.2 +20.2 100 +24 +24 комфорт 1014.0 881.4 +26.6
СЗ 1 10 км дымка {дождь} 10/5 180 м
[Frnb Ac As]
+18.9 +18.9 100 +22 +22 комфорт 1016.0 883.2
Ю 3 10 км слаб. морось {дождь} 10/5 300 м
[Cu Sc Ac As]
+18.7 +18.7 100 +20 +20 1016.0 882.3 +17.8 5
ЮВ 2 15 км мгла {морось} 8/4 500 м
[Cu Sc Ac trans Ci sp]
+23.9 +20.4 78 +29 +38 душно 1016.0 882.6
СЗ 4 15 км мгла {морось} 8/4 400 м
[Cu Sc Ac As]
+24.9 +20.6 78 +31 +38 очень
душно
1014.0 880.8 0.1
СЗ 3 15 км мгла 5/4 450 м
[Cu Sc Ac As]
+24.9 +19.9 74 +31 +33 очень
душно
1011.0 878.3
СЗ 2 15 км мгла 4/1 300 м
[Cu hum Ac As Ci fib]
+20.4 +20.4 100 +24 +24 комфорт 1013.0 880.3 +26.5
Ю 2 15 км мгла 6/1 210 м
[Cu hum Ac As]
+20.8 +20.8 100 +27 +27 душно 1015.0 882.2
Ю 3 15 км дымка 8/1 300 м
[Cu hum Ac trans Cs]
+20.1 +20.1 100 +24 +26 комфорт 1014.0 881.6 +18.7 0.1
В 2 15 км мгла 9/3 360 м
[Cu hum Ac trans Cs]
+24.4 +18.1 69 +28 +37 душно 1016.0 882.8
СЗ 3 15 км 8/4 450 м
[Cu Sc Ac As Cs]
+27.3 +20.1 66 +33 +41 очень
душно
1013.0 880.4
С 3 15 км н/о +24.4 +21.7 89 +31 +33 очень
душно
1012.0 879.1
СЗ 2 3000 м туман местами {морось} 10/6 210 м
[Frnb Ac As Ci fib]
+21.5 +21.5 100 +29 +29 очень
душно
1014.0 880.7 +27.9 0.5
ЮВ 2 4000 м дымка 10/8 210 м
[St Ac und]
+21.7 +21.7 100 +29 +29 очень
душно
1016.0 882.7
Ю 1 2000 м туман на расстоянии 10/10 180 м
[St]
+20.0 +20.0 100 +25 +25 комфорт 1015.0 882.3 +19.9
СЗ 1 1500 м сильн. дождь 10/10 150 м
[Cu med, cong]
+21.4 +21.4 100 +28 +31 очень
душно
1016.0 883.3
СЗ 2 10 км 5/5 450 м
[Ac]
+25.0 +21.0 78 +31 +41 очень
душно
1015.0 879.6
СЗ 2 15 км мгла 10/4 500 м
[Cu Sc Ac As Ci sp]
+24.2 +21.3 83 +30 +32 очень
душно
1013.0 879.9
СЗ 2 14 км 10/4 300 м
[Cu Sc Ac As Cs]
+21.1 +21.1 100 +27 +27 душно 1014.0 881.2 +25.6
С 1 14 км 9/4 360 м
[Cu Sc Ac As Ci fib]
+20.4 +20.4 100 +25 +25 комфорт 1015.0 882.3
штиль 0 3000 м туман местами 10/5 360 м
[Cu Sc Ac As]
+21.0 +21.0 100 +26 +27 душно 1016.0 882.8 +19.8 10
В 2 10 км мгла 6/5 450 м
[Cu Sc Ac und Ci fib]
+24.2 +21.0 83 +30 +38 очень
душно
1016.0 883.1
СЗ 3 15 км мгла 8/5 450 м
[Cu Sc Ac trans Ci fib]
+26.0 +22.1 79 +34 +42 очень
душно
1014.0 881.4
СЗ 3 10 км 5/5 450 м +24.0 +24.0 100 +33 +35 очень
душно
1012.0 877.5
СЗ 3 15 км слаб. морось 9/4 300 м
[Cu Sc Ac As]
+21.6 +21.6 100 +28 +28 очень
душно
1014.0 880.7 +27.4 1
СЗ 2 15 км мгла 3/3 300 м
[Cu hum]
+21.0 +21.0 100 +27 +27 душно 1015.0 882.5
Ю 2 3000 м туман на расстоянии 6/3 120 м
[St Ci fib]
+21.2 +21.2 100 +27 +28 душно 1016.0 882.7 +19.4 2
Ю 2 15 км 10/4 360 м
[Cu hum Ac trans Cs]
+24.6 +19.6 74 +31 +36 очень
душно
1017.0 883.8
СЗ 2 15 км мгла 9/5 450 м
[Cu Sc Ac trans Ci sp]
+25.6 +21.5 79 +34 +43 очень
душно
1015.0 882.3
СЗ 4 15 км мгла 9/5 450 м
[Cu Sc Ac As Ci sp]
+24.8 +21.0 78 +31 +33 очень
душно
1014.0 880.6
СЗ 1 14 км мгла 10/4 360 м
[Cu Sc Ac As Ci sp]
+21.9 +21.9 100 +29 +29 очень
душно
1015.0 881.7 +27.1
З 1 14 км мгла 9/4 360 м
[Cu Sc Ac As]
+21.2 +21.2 100 +28 +28 очень
душно
1018.0 884.4
Местоположение метеостанции Букараманга (Колумбия): широта 7.10 долгота -73.20 высота над уровнем моря 1189 м.
В архиве по умолчанию представлена погода в Букараманге за последнюю неделю. Архивные данные за месяц целиком и за предыдущие месяцы, начиная с января 2011 года, Вы можете получить, выбрав интересующий диапазон дат из раскрывающегося списка и нажав кнопку "Найти!".
*Определитесь, кто Вы:
Внимание! Время в таблицах - всемирное. Для получения местного времени необходимо прибавить поправку, которая равна -5 ч.
Смотрите также архив погоды в соседних городах и на ближайших метеорологических станциях:
Партнеры нашего сайта:      
Пояснения к столбцам:
  • Ветер - указаны скорость ветра в м/с - средняя за 10 мин, порывы в срок и между сроками (в фигурных скобках) и направление, откуда дует ветер: С - северный,
  • СВ - северо-восточный, В - восточный, ЮВ - юго-восточный, Ю - южный, ЮЗ - юго-западный, З - западный, СЗ - северо-западный.
  • Видимость - горизонтальная дальность видимости в метрах или километрах. При видимости от 1 до 10 км при отсутствии осадков обычно наблюдается дымка, при ухудшении видимости до 1 км и менее - туман. В сухую погоду видимость может ухудшаться дымом, пылью или мглою.
  • Явления - указаны атмосферные явления, наблюдавшиеся в срок или в последний час перед сроком; фигурными скобками обозначены явления, наблюдавшиеся между сроками (за 1-3 часа до срока); квадратными скобками обозначены град или гололедные отложения с указанием их диаметра в мм.
  • Облачность - указаны через наклонную черту общая и нижняя облачность в баллах и высота нижней границы облаков в метрах; квадратными скобками обозначены формы облаков: Ci - перистые, Cs - перисто-слоистые, Cc - перисто-кучевые, Ac - высококучевые, As - высокослоистые, Sc - слоисто-кучевые, Ns - слоисто-дождевые, Cu - кучевые, Cb - кучево-дождевые. Подробнее классификацию облаков см. в Атласе облаков (PDF).
  • T - Температура воздуха - температура, измеренная на высоте 2 м над землей.
  • Td - Температура точки росы - температура, при понижении до которой содержащийся в воздухе водяной пар достигнет насыщения.
  • f - Относительная влажность воздуха - влажноcть воздуха, измеренная на высоте 2 м над землей.
  • Te - Эффективная температура - температура, которую ощущает одетый по сезону человек в тени. Характеристика душности погоды. При расчете учитывается влияние влажности воздуха и скорости ветра на теплоощущения человека.
  • Tes - Эффективная температура на солнце - температура, которую ощущает человек, с поправкой на солнечный нагрев. Характеристика знойности погоды. Зависит от высоты солнца над горизонтом, облачности и скорости ветра. Ночью, в пасмурную погоду, а также при ветре 12 м/с и более поправка равна нулю.
  • P - Атмосферное давление - приведенное к уровню моря атмосферное давление.
  • Po - Атмосферное давление - измеренное на уровне метеостанции атмосферное давление.
  • Tmin - Минимальная температура - минимум температуры воздуха на высоте 2 м над землей.
  • Tmax - Максимальная температура - максимум температуры воздуха на высоте 2 м над землей.
  • R - Количество осадков - Количество выпавших осадков за период времени, мм. При наведении курсора мыши на число - период времени, за который выпало указанное количество осадков.
  • R24 - Количество осадков - Количество выпавших осадков за 24 часа, мм.
  • S - Снежный покров - Высота снежного покрова, см. При наведении курсора мыши на число - состояние снежного покрова и степень покрытия местности в баллах.